Tracking 21076 objects as of 9-Aug-2020
HD Live streaming from Space Station
objects crossing your sky now
Track the most recent launched group of Starlink satellites

ORBCOMM FM 107

Track ORBCOMM FM 107 now!
10-day predictions
ORBCOMM FM 107 is classified as:


NORAD ID: 40087
Int'l Code: 2014-040B
Perigee: 716.0 km
Apogee: 718.4 km
Inclination: 47.0 °
Period: 99.0 minutes
Semi major axis: 7088 km
RCS: Unknown
Launch date: July 14, 2014
Source: United States (US)
Launch site: AIR FORCE EASTERN TEST RANGE (AFETR)
aabbcc
Your satellite tracking list
Your tracking list is empty




NASA's NSSDC Master Catalog

Two Line Element Set (TLE):
1 40087U 14040B   20221.71931642 -.00000058  00000-0  24910-4 0  9992
2 40087  47.0065  80.8790 0001687 110.0989 250.0077 14.54797797322788
Source of the keplerian elements: AFSPC